Location: Otiria
(35.4000°S, 174.0000°E)
Time: 04:24:02
(UTC+00:00)

Daily predictions for brighter satellites

Satellite Brightness Start Highest point End
(mag) Time Altitude Azimuth Time Altitude Azimuth Time Altitude Azimuth
Cosmos 1570 Rocket 4.1 07:01:04 10° SSW 07:06:21 67° ESE 07:11:36 10° NNE
Cosmos-2242 3.7 07:04:22 10° SSE 07:08:29 36° E 07:12:33 10° NE
CZ-2C R/B 4.3 07:10:15 10° E 07:13:09 15° ESE 07:16:02 10° SSE
SL-24 R/B 4.3 07:09:09 10° N 07:13:25 76° W 07:17:47 10° SSW
Cosmos 2208 Rocket 4.1 07:08:16 10° SSW 07:13:43 66° ESE 07:19:03 10° NNE
Cosmos 468 Rocket 4.4 07:09:20 10° SSW 07:14:39 70° WNW 07:19:56 10° N
Cosmos 1455 3.8 07:13:16 10° SSE 07:16:02 18° ESE 07:18:35 11° ENE
PSLV R/B 3.7 07:16:29 10° W 07:19:04 44° SSW 07:21:40 10° ESE
USA 129 2.5 07:19:32 18° ENE 07:19:56 19° E 07:21:05 10° SSE
CZ-2D R/B 4.4 07:17:18 10° SE 07:20:21 22° E 07:23:22 10° NNE
Cosmos 1603 4.5 07:18:59 10° NW 07:24:38 59° WSW 07:30:20 10° SSE
Cosmos 1328 4.3 07:25:32 10° NNE 07:29:12 38° E 07:32:55 10° SSE
Cosmos 1486 Rocket 4.1 07:24:38 10° N 07:29:51 56° ENE 07:35:05 10° SSE
Cosmos 44 Rocket 4.0 07:25:00 10° SW 07:30:05 59° WNW 07:35:08 10° NNE
Cosmos 841 Rocket 3.4 07:31:39 10° SSW 07:36:53 80° ESE 07:42:04 10° NNE
Cosmos 2285 Rocket 4.3 07:33:56 10° NNE 07:39:49 42° E 07:45:43 10° SSE
DMSP B5D2-2 4.5 07:35:14 11° NE 07:40:03 44° ESE 07:45:02 10° S
DELTA 2 R/B (1) 4.1 07:35:25 10° NW 07:40:37 39° NNE 07:44:34 16° E
USA 215 3.4 07:34:34 10° SE 07:40:59 51° NE 07:47:19 10° NNW
Cosmos 1656 Rocket 4.4 07:35:53 10° S 07:41:06 35° ESE 07:44:30 19° ENE
Cosmos 1174 4.1 07:37:38 10° N 07:41:09 44° ENE 07:45:31 10° SE
Cosmos 1943 Rocket 2.2 07:36:04 10° SSW 07:41:38 80° WNW 07:47:08 10° NNE
Cosmos 968 Rocket 3.9 07:38:07 10° N 07:42:56 39° E 07:47:44 10° SE
Centaur AC-112 3.6 07:39:21 10° WNW 07:45:22 27° NNW 07:46:55 19° NNE
Cosmos 1241 Rocket 4.4 07:43:43 10° NNW 07:49:55 71° ENE 07:56:17 10° SSE
YAOGAN 1 2.6 07:45:36 10° S 07:50:01 86° WSW 07:54:22 10° NNW
Meteor 1-11 4.3 07:53:29 10° N 07:59:12 59° E 08:04:56 10° SSE
Cosmos 1842 Rocket 4.1 07:56:12 10° S 08:00:18 37° E 08:01:23 32° ENE
Envisat 4.5 07:55:40 10° S 08:00:27 40° WSW 08:05:12 10° NW
Cosmos 1503 Rocket 4.0 07:55:22 10° N 08:00:30 58° ENE 08:05:46 10° SSE
Haruka 4.1 07:42:49 10° W 08:00:36 64° NNW 08:03:30 27° ENE
Cosmos 1271 Rocket 4.4 07:59:54 10° NNW 08:03:39 38° WSW 08:07:26 10° S
Cosmos 1939 Rocket 2.6 08:00:33 10° SSE 08:04:29 74° E 08:08:22 10° N
CSL-04 Rocket 4.0 08:01:08 10° S 08:06:41 72° WSW 08:12:12 10° NNW
Cosmos 2123 Rocket 4.1 08:03:52 10° S 08:10:16 82° W 08:16:37 10° N
NOAA 11 4.1 08:05:37 10° SSE 08:11:13 77° ENE 08:16:43 10° N
CZ-4C R/B 3.6 08:05:29 10° NNE 08:12:28 31° ENE 08:18:54 10° SE
HJ-1C 3.3 08:10:07 10° SSE 08:13:34 67° E 08:13:52 63° NE
Cosmos 1900 4.4 08:09:40 10° SSW 08:14:47 66° ESE 08:16:35 39° NE
Cosmos 1340 Rocket 2.7 08:11:10 10° S 08:15:13 73° E 08:16:13 48° NNE
Cosmos 540 Rocket 4.2 08:13:26 10° SSW 08:18:26 50° WNW 08:22:56 12° N
Cosmos 1703 4.2 08:17:12 10° NNW 08:20:58 47° W 08:24:48 10° S
Intercosmos 25 Rocket 4.3 08:19:54 10° SSE 08:22:05 31° SE 08:22:05 31° SE
CZ-4 R/B 4.0 08:21:15 10° SSW 08:24:19 22° WSW 08:27:23 10° WNW
MOS 1 Rocket 4.5 08:26:04 27° SE 08:26:04 27° SE 08:29:30 10° SSE
Cosmos 1242 Rocket 4.1 08:23:05 10° NNW 08:26:27 36° WSW 08:29:50 10° S
SJ-11-01 4.5 08:23:33 10° SSE 08:28:04 50° E 08:28:04 50° E
Cosmos 1605 Rocket 4.4 08:23:57 10° NNW 08:29:58 63° W 08:36:08 10° S
H-2A ROCKET BODY 2.9 08:14:34 10° W 08:30:09 47° NNW 08:31:43 37° NNE
Cosmos 1459 Rocket 4.3 08:29:21 41° ENE 08:30:34 46° E 08:36:39 10° SSE
Cosmos 2221 2.5 08:28:10 10° S 08:32:25 62° ESE 08:32:25 62° ESE
Meteor 2-10 Rocket 4.0 08:27:37 10° SSW 08:33:30 69° W 08:37:21 21° N
Cosmos 2369 Rocket 4.0 08:35:37 10° SW 08:40:23 27° WNW 08:45:07 10° NNW
Ariane Rocket 3.4 08:38:01 10° S 08:43:05 64° WSW 08:48:07 10° NNW
Cosmos 1076 Rocket 4.0 08:45:05 50° SSE 08:45:05 50° SSE 08:48:22 10° S
Cosmos 1802 Rocket 4.2 08:44:31 48° E 08:44:31 48° E 08:50:23 10° SSE
Meteor 2-2 Rocket 4.3 08:38:53 10° S 08:44:45 63° E 08:45:26 59° ENE
Meteor 2-20 4.3 08:44:27 10° S 08:50:39 78° E 08:51:45 61° NNE
Cosmos 1455 4.5 08:48:27 10° SW 08:51:34 23° W 08:53:33 16° NW
Cosmos 2173 Rocket 3.8 08:50:54 62° NE 08:51:41 69° E 08:57:47 10° SSE
SPOT 3 Rocket 4.3 08:47:10 10° SSE 08:50:36 38° SE 08:50:36 38° SE
MOS 1 4.2 08:46:59 10° SSE 08:52:47 90° ENE 08:54:58 40° NNW
CZ-2C R/B 3.0 08:51:06 39° NNW 08:52:53 60° W 08:58:06 10° SSW
USA 186 4.2 08:50:48 10° S 08:52:00 20° S 08:52:00 20° S
ATLAS CENTAUR R/B 4.1 08:41:05 10° NW 08:58:35 76° SW 09:04:35 10° SE
USA 229 DEB 4.2 09:02:26 10° SSW 09:08:51 40° SE 09:08:55 40° SE
USA 229 4.3 09:02:28 10° SSW 09:08:54 40° SE 09:09:00 40° SE
Cosmos 2100 Rocket 4.0 09:08:33 53° NNW 09:10:06 77° W 09:16:24 10° S
H-2A R/B 3.0 09:05:39 10° SSE 09:08:32 35° SSE 09:08:32 35° SSE
Atlas 2A Centaur Rocket 4.0 09:00:26 10° WNW 09:22:19 49° NNW 09:22:23 49° N
USA 215 4.3 09:17:40 10° SSE 09:23:49 43° SW 09:29:57 10° WNW
DELTA 2 R/B (1) 4.2 09:21:14 10° WNW 09:25:23 50° W 09:25:23 50° W
NOSS 3-1 (C) 4.2 09:27:02 10° SSW 09:31:42 41° SSE 09:31:42 41° SSE
Cosmos 2016 Rocket 4.2 09:35:52 71° SSW 09:35:52 71° SSW 09:41:41 10° S
BREEZE-M R/B 4.5 09:38:53 10° W 09:42:43 38° SSW 09:50:11 10° SE
Cosmos 2061 Rocket 4.4 09:44:47 59° WSW 09:44:47 59° WSW 09:50:33 10° S
USA 267 3.9 09:55:50 47° SSE 09:55:50 47° SSE 10:01:21 10° SSW
CZ-4C R/B 3.4 09:52:50 10° NW 10:00:54 57° SW 10:08:02 10° SSE
Resurs 01 Rocket 4.5 10:06:52 10° S 10:07:27 13° S 10:07:27 13° S
Mayak 2.0 10:15:29 11° S 10:15:29 11° S 10:15:35 10° S
